| time (UTC) | temp C | wind direction | speed KPH | gust KPH | rain 1hr cm | rain 24hr cm | rain mn cm | humidity % | barometer mb |
| 20260510141525 | 11 | 56 | 4.8 | 9.7 | 0.00 | 0.99 | 0.00 | 52 | 1017.1 |
| 20260510140026 | 10 | 18 | 4.8 | 14.5 | 0.00 | 0.99 | 0.00 | 54 | 1017.1 |
| 20260510134510 | 10 | 274 | 4.8 | 11.3 | 0.00 | 0.99 | 0.00 | 56 | 1017.0 |
| 20260510133015 | 9 | 56 | 3.2 | 6.4 | 0.00 | 0.99 | 0.00 | 63 | 1016.6 |
| 20260510131519 | 8 | 50 | 0.0 | 11.3 | 0.00 | 0.99 | 0.00 | 65 | 1016.3 |
| 20260510130025 | 8 | 52 | 0.0 | 4.8 | 0.00 | 0.99 | 0.00 | 67 | 1015.9 |
| 20260510124528 | 8 | 90 | 1.6 | 11.3 | 0.00 | 0.99 | 0.00 | 68 | 1016.1 |
| 20260510123028 | 8 | 347 | 3.2 | 11.3 | 0.00 | 0.99 | 0.00 | 70 | 1015.7 |
| 20260510121517 | 8 | 299 | 1.6 | 9.7 | 0.00 | 0.99 | 0.00 | 74 | 1015.4 |
| 20260510120026 | 8 | 318 | 1.6 | 8.0 | 0.00 | 0.99 | 0.00 | 77 | 1015.0 |
| 20260510114528 | 8 | 319 | 4.8 | 8.0 | 0.00 | 0.99 | 0.00 | 78 | 1014.5 |
| 20260510113029 | 7 | 31 | 3.2 | 8.0 | 0.00 | 0.99 | 0.00 | 80 | 1014.1 |
| 20260510111528 | 7 | 22 | 1.6 | 6.4 | 0.00 | 0.99 | 0.00 | 82 | 1014.0 |
| 20260510110016 | 7 | 143 | 1.6 | 8.0 | 0.00 | 0.99 | 0.00 | 81 | 1013.5 |
| 20260510104522 | 7 | 327 | 0.0 | 6.4 | 0.00 | 0.99 | 0.00 | 82 | 1013.2 |
| 20260510103024 | 7 | 86 | 0.0 | 4.8 | 0.00 | 0.99 | 0.00 | 83 | 1012.9 |
| 20260510101526 | 7 | 338 | 0.0 | 1.6 | 0.00 | 0.99 | 0.00 | 84 | 1012.9 |
| 20260510100028 | 7 | 345 | 0.0 | 3.2 | 0.00 | 0.99 | 0.00 | 83 | 1012.6 |
| 20260510094535 | 7 | 299 | 0.0 | 1.6 | 0.00 | 0.99 | 0.00 | 84 | 1012.5 |
| 20260510093004 | 7 | 337 | 0.0 | 3.2 | 0.00 | 0.99 | 0.00 | 85 | 1012.1 |
| 20260510091509 | 7 | 279 | 0.0 | 1.6 | 0.00 | 0.99 | 0.00 | 86 | 1011.8 |
| 20260510090014 | 7 | 279 | 0.0 | 1.6 | 0.00 | 0.99 | 0.00 | 86 | 1011.5 |
| 20260510084520 | 8 | 226 | 0.0 | 0.0 | 0.00 | 0.99 | 0.00 | 85 | 1011.6 |
| 20260510083041 | 8 | 236 | 0.0 | 0.0 | 0.00 | 0.99 | 0.00 | 85 | 1011.3 |
| 20260510081524 | 8 | 236 | 0.0 | 0.0 | 0.00 | 0.99 | 0.00 | 84 | 1011.2 |
| 20260510080022 | 8 | 236 | 0.0 | 0.0 | 0.00 | 0.99 | 0.00 | 83 | 1011.0 |
| 20260510074516 | 9 | 236 | 0.0 | 1.6 | 0.00 | 0.99 | 0.00 | 81 | 1010.8 |
| 20260510073022 | 10 | 298 | 0.0 | 4.8 | 0.00 | 0.99 | 0.00 | 80 | 1010.5 |
| 20260510071532 | 10 | 75 | 1.6 | 8.0 | 0.00 | 1.02 | 0.00 | 79 | 1010.4 |
| 20260510070028 | 10 | 65 | 3.2 | 8.0 | 0.00 | 1.04 | 0.00 | 80 | 1010.1 |
| 20260510064514 | 10 | 11 | 0.0 | 8.0 | 0.00 | 1.04 | 0.00 | 82 | 1010.0 |
| 20260510063019 | 11 | 294 | 1.6 | 8.0 | 0.00 | 1.07 | 0.00 | 82 | 1010.0 |
| 20260510061522 | 11 | 348 | 0.0 | 6.4 | 0.00 | 1.14 | 0.00 | 81 | 1009.9 |
| 20260510060036 | 12 | 347 | 0.0 | 6.4 | 0.00 | 1.47 | 0.00 | 80 | 1009.8 |
| 20260510054535 | 12 | 295 | 3.2 | 9.7 | 0.00 | 1.55 | 0.00 | 82 | 1009.7 |
| 20260510053015 | 12 | 307 | 1.6 | 9.7 | 0.00 | 1.57 | 0.00 | 84 | 1009.7 |
| 20260510051518 | 12 | 274 | 3.2 | 12.9 | 0.00 | 1.60 | 0.00 | 85 | 1009.3 |
| 20260510050024 | 12 | 209 | 1.6 | 6.4 | 0.00 | 1.63 | 0.00 | 84 | 1008.1 |
| 20260510044525 | 12 | 192 | 4.8 | 12.9 | 0.00 | 1.65 | 0.00 | 83 | 1007.9 |
| 20260510043031 | 12 | 155 | 0.0 | 6.4 | 0.03 | 1.73 | 0.00 | 83 | 1007.6 |
| 20260510041520 | 12 | 125 | 1.6 | 8.0 | 0.03 | 1.75 | 0.00 | 81 | 1007.5 |
| 20260510040022 | 12 | 146 | 3.2 | 12.9 | 0.03 | 1.78 | 0.00 | 84 | 1007.7 |
| 20260510034525 | 12 | 338 | 3.2 | 9.7 | 0.03 | 1.80 | 1.78 | 84 | 1007.9 |
| 20260510033025 | 12 | 181 | 1.6 | 8.0 | 0.10 | 1.80 | 1.75 | 82 | 1007.9 |
| 20260510031528 | 12 | 204 | 1.6 | 4.8 | 0.10 | 1.83 | 1.75 | 83 | 1007.8 |
| 20260510030019 | 12 | 150 | 0.0 | 6.4 | 0.13 | 1.85 | 1.75 | 83 | 1007.5 |
| 20260510024515 | 12 | 297 | 3.2 | 12.9 | 0.13 | 1.85 | 1.75 | 85 | 1008.0 |
| 20260510023008 | 12 | 146 | 0.0 | 3.2 | 0.03 | 1.75 | 1.65 | 87 | 1008.0 |
| 20260510021513 | 12 | 108 | 1.6 | 6.4 | 0.03 | 1.75 | 1.65 | 87 | 1007.5 |
| 20260510020019 | 12 | 87 | 0.0 | 3.2 | 0.00 | 1.73 | 1.63 | 86 | 1007.5 |
| 20260510014523 | 11 | 202 | 0.0 | 1.6 | 0.00 | 1.73 | 1.63 | 86 | 1007.3 |
| 20260510013018 | 12 | 288 | 0.0 | 3.2 | 0.00 | 1.73 | 1.63 | 86 | 1007.3 |
| 20260510011509 | 12 | 245 | 0.0 | 3.2 | 0.00 | 1.75 | 1.63 | 86 | 1007.3 |
| 20260510010013 | 12 | 291 | 0.0 | 6.4 | 0.00 | 1.78 | 1.63 | 85 | 1007.0 |
| 20260510004516 | 12 | 298 | 3.2 | 8.0 | 0.00 | 1.80 | 1.63 | 85 | 1007.1 |
| 20260510003031 | 12 | 143 | 1.6 | 12.9 | 0.10 | 1.85 | 1.63 | 85 | 1007.0 |
| 20260510001524 | 12 | 327 | 1.6 | 8.0 | 0.30 | 1.88 | 1.63 | 86 | 1007.0 |
| 20260510000006 | 12 | 101 | 3.2 | 6.4 | 0.76 | 1.93 | 1.63 | 88 | 1006.9 |
| 20260509234521 | 12 | 288 | 1.6 | 14.5 | 0.84 | 1.96 | 1.63 | 88 | 1006.9 |
| 20260509233019 | 12 | 259 | 8.0 | 20.9 | 0.74 | 1.93 | 1.52 | 88 | 1007.3 |
| 20260509231524 | 12 | 287 | 8.0 | 30.6 | 0.53 | 1.75 | 1.32 | 87 | 1006.6 |
| 20260509230024 | 15 | 300 | 16.1 | 37.0 | 0.08 | 1.32 | 0.86 | 72 | 1007.1 |
| 20260509224507 | 19 | 244 | 4.8 | 14.5 | 0.00 | 1.32 | 0.79 | 55 | 1004.5 |
| 20260509223016 | 19 | 160 | 4.8 | 14.5 | 0.00 | 1.42 | 0.79 | 54 | 1004.4 |
| 20260509221521 | 20 | 293 | 3.2 | 20.9 | 0.00 | 1.52 | 0.79 | 54 | 1004.5 |
| 20260509220027 | 20 | 65 | 6.4 | 22.5 | 0.00 | 1.57 | 0.79 | 52 | 1004.2 |
| 20260509214524 | 21 | 266 | 6.4 | 19.3 | 0.00 | 1.57 | 0.79 | 53 | 1004.2 |
| 20260509213010 | 21 | 120 | 4.8 | 19.3 | 0.00 | 1.57 | 0.79 | 53 | 1004.2 |
| 20260509211517 | 20 | 139 | 6.4 | 20.9 | 0.00 | 1.57 | 0.79 | 54 | 1004.2 |
| 20260509210022 | 21 | 158 | 6.4 | 22.5 | 0.00 | 1.57 | 0.79 | 56 | 1004.6 |
| 20260509204526 | 21 | 270 | 6.4 | 16.1 | 0.00 | 1.60 | 0.79 | 54 | 1004.9 |
| 20260509203036 | 20 | 171 | 9.7 | 22.5 | 0.00 | 1.60 | 0.79 | 55 | 1005.2 |
| 20260509201515 | 20 | 118 | 8.0 | 22.5 | 0.00 | 1.60 | 0.79 | 54 | 1005.3 |
| 20260509200026 | 20 | 254 | 8.0 | 20.9 | 0.00 | 1.60 | 0.79 | 55 | 1005.4 |
| 20260509194506 | 20 | 199 | 6.4 | 19.3 | 0.00 | 1.60 | 0.79 | 57 | 1005.6 |
| 20260509193006 | 19 | 191 | 4.8 | 20.9 | 0.00 | 1.60 | 0.79 | 58 | 1005.9 |
| 20260509191516 | 19 | 265 | 4.8 | 20.9 | 0.00 | 1.60 | 0.79 | 58 | 1006.2 |
| 20260509190019 | 19 | 276 | 3.2 | 19.3 | 0.00 | 1.60 | 0.79 | 58 | 1006.4 |
| 20260509184519 | 19 | 196 | 6.4 | 16.1 | 0.00 | 1.60 | 0.79 | 58 | 1006.7 |
| 20260509183006 | 19 | 322 | 4.8 | 14.5 | 0.00 | 1.60 | 0.79 | 57 | 1006.5 |
| 20260509181509 | 18 | 210 | 6.4 | 16.1 | 0.00 | 1.60 | 0.79 | 58 | 1006.3 |
| 20260509180015 | 18 | 292 | 4.8 | 17.7 | 0.00 | 1.60 | 0.79 | 61 | 1006.7 |
| 20260509174519 | 18 | 95 | 4.8 | 14.5 | 0.00 | 1.60 | 0.79 | 60 | 1006.6 |
| 20260509173024 | 18 | 229 | 6.4 | 12.9 | 0.00 | 1.60 | 0.79 | 60 | 1006.5 |
| 20260509171511 | 18 | 101 | 3.2 | 11.3 | 0.00 | 1.60 | 0.79 | 65 | 1006.6 |
| 20260509170018 | 17 | 207 | 3.2 | 14.5 | 0.00 | 1.60 | 0.79 | 63 | 1006.5 |
| 20260509164522 | 17 | 264 | 1.6 | 9.7 | 0.00 | 1.60 | 0.79 | 68 | 1006.7 |
| 20260509163022 | 17 | 264 | 4.8 | 9.7 | 0.00 | 1.60 | 0.79 | 68 | 1007.1 |
| 20260509161532 | 16 | 292 | 4.8 | 12.9 | 0.00 | 1.60 | 0.79 | 69 | 1007.3 |
| 20260509160010 | 16 | 300 | 3.2 | 14.5 | 0.00 | 1.60 | 0.79 | 69 | 1007.4 |
| 20260509154513 | 16 | 180 | 4.8 | 12.9 | 0.00 | 1.60 | 0.79 | 71 | 1007.4 |
| 20260509153017 | 15 | 287 | 3.2 | 9.7 | 0.00 | 1.60 | 0.79 | 75 | 1007.3 |
| 20260509151521 | 14 | 270 | 3.2 | 9.7 | 0.00 | 1.60 | 0.79 | 79 | 1007.4 |
| 20260509150024 | 14 | 286 | 1.6 | 8.0 | 0.00 | 1.60 | 0.79 | 80 | 1007.3 |
| 20260509144510 | 13 | 108 | 1.6 | 8.0 | 0.00 | 1.60 | 0.79 | 84 | 1007.4 |
| 20260509143014 | 13 | 39 | 0.0 | 8.0 | 0.00 | 1.60 | 0.79 | 84 | 1007.2 |